Погода в Посёлке Курорт Озеро Медвежье

Россия / Курганская область     55°14′32″N   67°57′08″E
темп.,
°C
ветер,
м/с
пор.,
м/с
влажн.,
%
обл.,
%
осадки,
мм/ч
давл.,
гПа
погр.,
м
5 марта, пт
пт523:00−8зюз6139383 1.0 1000277
02:00−10зюз6119129 0.0 1002255
05:00−12ююз6119231 0.0 1004264
08:00−8ююз91692100 0.3 1001742
11:00−2юз111894100 1.0 10001135
14:00+1зюз10168099 0.4 10001339
17:00−1юз9158599 0.6 1003891
20:00−2юз71495100 0.1 1002764
6 марта, сб
сб623:00−2ююз91596100 1.5 1001981
02:000юз91596100 1.8 998898
05:00−5зсз81395100 2.6 1001531
08:00−8з7139195 0.2 1005497
11:00−9з7128759 0.2 1009460
14:00−8зюз610850 0.0 1010486
17:00−9зюз510880 0.0 1011381
20:00−13зюз512920 0.0 1012203
7 марта, вс
вс723:00−14юз48920 0.0 1013137
02:00−16юз47882 0.0 101399
05:00−17юз478820 0.0 101498
08:00−15ююз3591100 0.0 1014104
11:00−10ю2488100 0.0 1014255
14:00−8юв3586100 0.0 1011287
17:00−7в5895100 1.1 1007381
20:00−7в5995100 2.6 1002338
8 марта, пн
пн823:00+1ююз101797100 4.1 998969
02:000ююз101697100 2.1 996945
05:00−9сз71292100 3.0 999502
08:00−13зсз71393100 0.0 1002394
11:00−12зсз71192100 0.1 1007436
14:00−12з6108776 0.0 1010539
17:00−12зюз5108969 0.0 1012512
20:00−14ююз4119297 0.0 1014282
9 марта, вт
вт923:00−13юз6119498 0.2 1013429
02:00−11ююз5139399 0.2 1013443
05:00−11ююз6139499 0.3 1014352
08:00−12ююз61295100 0.0 1013318
11:00−9ю81493100 0.1 1010511
14:00−6ююз111989100 0.1 10071084
17:00−4юз101882100 0.3 10061464
20:00−8юз10207733 0.0 1007895